Pittsburgh Allegheny Co., PA

10:08 PM EDT on July 24, 2017 (GMT -0400)
Allegheny County

Weather History for KAGC - March, 2013

Change the Weather History Date:

Saturday, March 30, 2013

  Actual Average Record
Temperature  
Mean Temperature 43 °F -  
Max Temperature 54 °F 57 °F 84 °F (1998)
Min Temperature 33 °F 36 °F 25 °F (2003)
Degree Days  
Heating Degree Days 22    
Moisture  
Dew Point 20 °F    
Average Humidity 41    
Maximum Humidity 66    
Minimum Humidity 26    
Precipitation  
Precipitation 0.00 in - - ()
Sea Level Pressure  
Sea Level Pressure 30.18 in    
Wind  
Wind Speed 3 mph (SSE)    
Max Wind Speed 8 mph    
Max Gust Speed -    
Visibility 10 miles    
Events      
Averages and records for this station are not official NWS values.
T = Trace of Precipitation, MM = Missing Value Source: NWS Daily Summary

Daily Weather History Graph

Daily Weather History Graph

Search for Another Location

Airport or City:

Trip Planner

Search our weather history database for the weather conditions in past years. The results will help you decide how hot, cold, wet, or windy it might be!

Date:

Astronomy

Mar. 30, 2013 Rise Set
Actual Time 7:06 AM EDT 7:42 PM EDT
Civil Twilight 6:38 AM EDT 8:09 PM EDT
Nautical Twilight 6:06 AM EDT 8:42 PM EDT
Astronomical Twilight 5:33 AM EDT 9:15 PM EDT
Moon 11:47 PM EDT (3/30) 8:59 AM EDT (3/30)
Length of Visible Light 13h 30m
Length of Day
12h 36m
Waning Gibbous, 86% of the Moon is Illuminated
Mar 30
Waning Gibbous
Apr 3
Last Quarter
Apr 10
New
Apr 18
First Quarter
Apr 25
Full

Hourly Weather History & Observations

Time (EDT) Temp. Windchill Dew Point Humidity Pressure Visibility Wind Dir Wind Speed Gust Speed Precip Events Conditions
12:53 AM 37.9 °F 33.5 °F 21.0 °F 51% 30.23 in 10.0 mi NNW 5.8 mph - N/A   Clear
1:53 AM 37.9 °F 35.5 °F 21.0 °F 51% 30.23 in 10.0 mi NNW 3.5 mph - N/A   Clear
2:53 AM 37.0 °F 34.5 °F 21.0 °F 52% 30.22 in 10.0 mi North 3.5 mph - N/A   Clear
3:53 AM 36.0 °F - 21.0 °F 55% 30.22 in 10.0 mi Calm Calm - N/A   Clear
4:53 AM 36.0 °F - 21.0 °F 55% 30.22 in 10.0 mi Calm Calm - N/A   Clear
5:53 AM 35.1 °F - 21.0 °F 57% 30.22 in 10.0 mi Calm Calm - N/A   Clear
6:53 AM 34.0 °F - 21.0 °F 59% 30.24 in 10.0 mi Calm Calm - N/A   Clear
7:53 AM 33.1 °F - 23.0 °F 66% 30.25 in 10.0 mi Calm Calm - N/A   Clear
8:53 AM 37.0 °F - 26.1 °F 65% 30.26 in 10.0 mi Calm Calm - N/A   Clear
9:53 AM 41.0 °F - 21.9 °F 47% 30.27 in 10.0 mi Calm Calm - N/A   Clear
10:53 AM 44.1 °F - 21.0 °F 40% 30.25 in 10.0 mi Calm Calm - N/A   Clear
11:53 AM 46.0 °F - 19.9 °F 35% 30.24 in 10.0 mi Calm Calm - N/A   Clear
12:53 PM 46.9 °F - 19.9 °F 34% 30.21 in 10.0 mi SE 3.5 mph - N/A   Clear
1:53 PM 50.0 °F - 19.9 °F 31% 30.18 in 10.0 mi Variable 6.9 mph - N/A   Clear
2:53 PM 51.1 °F - 19.9 °F 29% 30.17 in 10.0 mi WSW 6.9 mph - N/A   Clear
3:53 PM 52.0 °F - 19.9 °F 28% 30.14 in 10.0 mi WSW 6.9 mph - N/A   Clear
4:53 PM 52.0 °F - 19.0 °F 27% 30.12 in 10.0 mi South 8.1 mph - N/A   Clear
5:53 PM 53.1 °F - 19.0 °F 26% 30.11 in 10.0 mi SW 5.8 mph - N/A   Clear
6:53 PM 51.1 °F - 17.1 °F 26% 30.10 in 10.0 mi South 3.5 mph - N/A   Clear
7:53 PM 48.9 °F - 17.1 °F 28% 30.10 in 10.0 mi SSE 4.6 mph - N/A   Clear
8:53 PM 48.0 °F - 18.0 °F 30% 30.09 in 10.0 mi ESE 3.5 mph - N/A   Clear
9:53 PM 46.0 °F 43.1 °F 18.0 °F 33% 30.08 in 10.0 mi SE 5.8 mph - N/A   Clear
10:53 PM 45.0 °F 42.6 °F 17.1 °F 33% 30.07 in 10.0 mi ESE 4.6 mph - N/A   Clear
11:53 PM 45.0 °F 41.8 °F 18.0 °F 34% 30.04 in 10.0 mi ESE 5.8 mph - N/A   Clear